Time,TemperatureF,DewpointF,PressureIn,WindDirection,WindDirectionDegrees,WindSpeedMPH,WindSpeedGustMPH,Humidity,HourlyPrecipIn,Conditions,Clouds,dailyrainin,SoftwareType,DateUTC
2013-03-06 00:00:00,40.1,16.5,29.83,NNE,17,0.0,0.0,38,0.00,,CLR,0.00,VWS V14.00,2013-03-06 05:00:00,
2013-03-06 00:05:00,39.9,15.8,29.83,NNE,17,0.0,0.0,37,0.00,,OVC065,0.00,VWS V14.00,2013-03-06 05:05:00,
2013-03-06 00:10:00,39.9,15.8,29.83,NNE,17,0.0,0.0,37,0.00,,OVC065,0.00,VWS V14.00,2013-03-06 05:10:00,
2013-03-06 00:15:00,39.9,15.8,29.83,NNE,17,0.0,0.0,37,0.00,,OVC065,0.00,VWS V14.00,2013-03-06 05:15:00,
2013-03-06 00:20:00,39.9,15.8,29.83,NNE,17,0.0,0.0,37,0.00,,OVC065,0.00,VWS V14.00,2013-03-06 05:20:00,
2013-03-06 00:25:00,39.7,15.6,29.83,NNE,17,0.0,0.0,37,0.00,,OVC065,0.00,VWS V14.00,2013-03-06 05:25:00,
2013-03-06 00:30:00,39.7,15.6,29.83,NNE,17,0.0,0.0,37,0.00,,OVC065,0.00,VWS V14.00,2013-03-06 05:30:00,
2013-03-06 00:35:00,39.6,15.4,29.83,NNE,17,0.0,0.0,37,0.00,,OVC065,0.00,VWS V14.00,2013-03-06 05:35:00,
2013-03-06 00:40:00,39.4,15.3,29.83,NNE,17,0.0,0.0,37,0.00,,OVC065,0.00,VWS V14.00,2013-03-06 05:40:00,
2013-03-06 00:45:00,39.2,15.1,29.83,NNE,17,0.0,0.0,37,0.00,,OVC065,0.00,VWS V14.00,2013-03-06 05:45:00,
2013-03-06 00:50:00,39.4,16.5,29.83,NNE,17,0.0,0.0,39,0.00,,OVC065,0.00,VWS V14.00,2013-03-06 05:50:00,
2013-03-06 00:55:00,39.4,16.5,29.83,NNE,17,0.0,0.0,39,0.00,,OVC065,0.00,VWS V14.00,2013-03-06 05:55:00,
2013-03-06 01:00:00,39.2,16.3,29.83,NNE,17,0.0,0.0,39,0.00,,OVC065,0.00,VWS V14.00,2013-03-06 06:00:00,
2013-03-06 01:05:00,39.2,16.3,29.83,NNE,17,0.0,0.0,39,0.00,,OVC065,0.00,VWS V14.00,2013-03-06 06:05:00,
2013-03-06 01:10:00,38.8,16.0,29.83,NNE,17,0.0,0.0,39,0.00,,OVC065,0.00,VWS V14.00,2013-03-06 06:10:00,
2013-03-06 01:15:00,38.8,16.0,29.83,NNE,17,0.0,0.0,39,0.00,,OVC065,0.00,VWS V14.00,2013-03-06 06:15:00,
2013-03-06 01:20:00,38.7,15.9,29.83,NNE,13,0.0,0.0,39,0.00,,OVC065,0.00,VWS V14.00,2013-03-06 06:20:00,
2013-03-06 01:25:00,38.5,15.7,29.83,NNE,13,0.0,0.0,39,0.00,,OVC065,0.00,VWS V14.00,2013-03-06 06:25:00,
2013-03-06 01:30:00,38.5,15.7,29.83,NNE,13,0.0,0.0,39,0.00,,OVC065,0.00,VWS V14.00,2013-03-06 06:30:00,
2013-03-06 01:35:00,38.5,15.7,29.83,NNE,13,0.0,0.0,39,0.00,,OVC065,0.00,VWS V14.00,2013-03-06 06:35:00,
2013-03-06 01:40:00,38.5,15.7,29.83,NNE,13,0.0,0.0,39,0.00,,OVC065,0.00,VWS V14.00,2013-03-06 06:40:00,
2013-03-06 01:45:00,38.5,15.7,29.83,NNE,13,0.0,0.0,39,0.00,,OVC065,0.00,VWS V14.00,2013-03-06 06:45:00,
2013-03-06 01:50:00,38.7,16.4,29.83,NNE,13,0.0,0.0,40,0.00,,OVC065,0.00,VWS V14.00,2013-03-06 06:50:00,
2013-03-06 01:55:00,38.7,16.4,29.83,NNE,13,0.0,0.0,40,0.00,,OVC065,0.00,VWS V14.00,2013-03-06 06:55:00,
2013-03-06 02:00:00,38.8,16.0,29.83,NNE,13,0.0,0.0,39,0.00,,OVC065,0.00,VWS V14.00,2013-03-06 07:00:00,
2013-03-06 02:05:00,38.8,16.0,29.83,NNE,13,0.0,0.0,39,0.00,,OVC065,0.00,VWS V14.00,2013-03-06 07:05:00,
2013-03-06 02:10:00,38.8,16.6,29.83,NNE,13,0.0,0.0,40,0.00,,OVC065,0.00,VWS V14.00,2013-03-06 07:10:00,
2013-03-06 02:16:00,38.8,16.0,29.83,NNE,12,0.0,0.0,39,0.00,,OVC065,0.00,VWS V14.00,2013-03-06 07:16:00,
2013-03-06 02:21:00,38.8,16.0,29.83,NNE,13,0.0,0.0,39,0.00,,OVC065,0.00,VWS V14.00,2013-03-06 07:21:00,
2013-03-06 02:26:00,38.8,16.0,29.83,NNE,12,0.0,0.0,39,0.00,,OVC065,0.00,VWS V14.00,2013-03-06 07:26:00,
2013-03-06 02:31:00,38.8,16.0,29.83,NNE,12,0.0,0.0,39,0.00,,OVC065,0.00,VWS V14.00,2013-03-06 07:31:00,
2013-03-06 02:36:00,38.8,16.6,29.83,NNE,13,0.0,0.0,40,0.00,,OVC065,0.00,VWS V14.00,2013-03-06 07:36:00,
2013-03-06 02:41:00,38.8,16.6,29.83,NNE,12,0.0,0.0,40,0.00,,OVC065,0.00,VWS V14.00,2013-03-06 07:41:00,
2013-03-06 02:46:00,39.0,16.2,29.83,North,11,0.0,0.0,39,0.00,,OVC065,0.00,VWS V14.00,2013-03-06 07:46:00,
2013-03-06 02:51:00,39.0,16.2,29.83,NNE,12,0.0,0.0,39,0.00,,OVC065,0.00,VWS V14.00,2013-03-06 07:51:00,
2013-03-06 02:56:00,38.8,16.0,29.80,NNE,15,0.0,0.0,39,0.00,,OVC065,0.00,VWS V14.00,2013-03-06 07:56:00,
2013-03-06 03:01:00,38.8,16.0,29.80,North,351,0.0,0.0,39,0.00,,OVC065,0.00,VWS V14.00,2013-03-06 08:01:00,
2013-03-06 03:06:00,39.0,16.2,29.80,North,351,0.0,0.0,39,0.00,,OVC065,0.00,VWS V14.00,2013-03-06 08:06:00,
2013-03-06 03:11:00,38.8,16.0,29.83,North,351,0.0,0.0,39,0.00,,OVC065,0.00,VWS V14.00,2013-03-06 08:11:00,
2013-03-06 03:16:00,38.8,16.0,29.83,North,351,0.0,0.0,39,0.00,,OVC065,0.00,VWS V14.00,2013-03-06 08:16:00,
2013-03-06 03:21:00,38.8,16.0,29.83,North,356,0.0,0.0,39,0.00,,OVC065,0.00,VWS V14.00,2013-03-06 08:21:00,
2013-03-06 03:26:00,38.8,16.0,29.80,North,3,0.0,0.0,39,0.00,,OVC065,0.00,VWS V14.00,2013-03-06 08:26:00,
2013-03-06 03:31:00,38.8,16.0,29.80,ENE,58,2.7,4.0,39,0.00,,OVC065,0.00,VWS V14.00,2013-03-06 08:31:00,
2013-03-06 03:36:00,38.8,16.0,29.80,NNE,28,0.0,0.0,39,0.00,,OVC065,0.00,VWS V14.00,2013-03-06 08:36:00,
2013-03-06 03:41:00,38.7,15.9,29.83,NE,56,3.1,4.0,39,0.00,,OVC065,0.00,VWS V14.00,2013-03-06 08:41:00,
2013-03-06 03:46:00,38.5,15.7,29.83,NE,39,2.7,2.7,39,0.00,,OVC065,0.00,VWS V14.00,2013-03-06 08:46:00,
2013-03-06 03:51:00,38.5,15.7,29.83,ENE,75,0.0,0.0,39,0.00,,OVC065,0.00,VWS V14.00,2013-03-06 08:51:00,
2013-03-06 03:56:00,38.7,16.4,29.80,NE,48,0.0,0.0,40,0.00,,OVC065,0.00,VWS V14.00,2013-03-06 08:56:00,
2013-03-06 04:01:00,38.7,16.4,29.80,NE,50,0.0,0.0,40,0.00,,OVC065,0.00,VWS V14.00,2013-03-06 09:01:00,
2013-03-06 04:06:00,38.7,16.4,29.80,East,100,0.0,0.0,40,0.00,,OVC065,0.00,VWS V14.00,2013-03-06 09:06:00,
2013-03-06 04:11:00,38.7,16.4,29.80,East,81,2.7,3.1,40,0.00,,OVC065,0.00,VWS V14.00,2013-03-06 09:11:00,
2013-03-06 04:16:00,38.5,16.3,29.80,NE,43,0.0,0.0,40,0.00,,OVC065,0.00,VWS V14.00,2013-03-06 09:16:00,
2013-03-06 04:21:00,38.5,16.3,29.80,NE,36,3.6,4.5,40,0.00,,OVC065,0.00,VWS V14.00,2013-03-06 09:21:00,
2013-03-06 04:26:00,38.5,16.3,29.80,NNE,31,2.7,3.6,40,0.00,,OVC065,0.00,VWS V14.00,2013-03-06 09:26:00,
2013-03-06 04:31:00,38.3,16.1,29.80,ENE,76,0.0,3.6,40,0.00,,OVC065,0.00,VWS V14.00,2013-03-06 09:31:00,
2013-03-06 04:36:00,38.3,16.7,29.80,ESE,103,0.0,3.1,41,0.00,,OVC065,0.00,VWS V14.00,2013-03-06 09:36:00,
2013-03-06 04:41:00,38.1,16.5,29.80,NE,41,2.7,3.1,41,0.00,,OVC065,0.00,VWS V14.00,2013-03-06 09:41:00,
2013-03-06 04:46:00,38.1,16.5,29.80,ENE,72,4.5,4.5,41,0.00,,OVC065,0.00,VWS V14.00,2013-03-06 09:46:00,
2013-03-06 04:51:00,37.9,16.9,29.80,NE,38,2.7,4.5,42,0.00,,OVC065,0.00,VWS V14.00,2013-03-06 09:51:00,
2013-03-06 04:56:00,37.9,16.9,29.80,North,356,0.0,3.1,42,0.00,,OVC065,0.00,VWS V14.00,2013-03-06 09:56:00,
2013-03-06 05:01:00,37.9,17.5,29.80,NE,44,4.0,4.0,43,0.00,,OVC065,0.00,VWS V14.00,2013-03-06 10:01:00,
2013-03-06 05:06:00,37.9,17.5,29.80,NE,53,0.0,3.1,43,0.00,,OVC065,0.00,VWS V14.00,2013-03-06 10:06:00,
2013-03-06 05:11:00,37.8,17.8,29.80,NE,42,3.6,4.5,44,0.00,,OVC065,0.00,VWS V14.00,2013-03-06 10:11:00,
2013-03-06 05:16:00,37.6,18.2,29.80,ENE,66,0.0,4.5,45,0.00,,OVC065,0.00,VWS V14.00,2013-03-06 10:16:00,
2013-03-06 05:21:00,37.8,18.9,29.80,ENE,76,0.0,3.1,46,0.00,,OVC065,0.00,VWS V14.00,2013-03-06 10:21:00,
2013-03-06 05:26:00,37.9,19.5,29.80,NE,45,0.0,4.0,47,0.00,,OVC065,0.00,VWS V14.00,2013-03-06 10:26:00,
2013-03-06 05:31:00,38.1,20.2,29.80,ENE,57,2.7,4.0,48,0.00,,OVC065,0.00,VWS V14.00,2013-03-06 10:31:00,
2013-03-06 05:36:00,37.9,20.0,29.80,ENE,77,0.0,3.6,48,0.00,,OVC065,0.00,VWS V14.00,2013-03-06 10:36:00,
2013-03-06 05:41:00,37.9,20.5,29.80,ENE,66,0.0,2.7,49,0.00,,OVC065,0.00,VWS V14.00,2013-03-06 10:41:00,
2013-03-06 05:46:00,37.9,20.5,29.80,ENE,78,3.1,3.1,49,0.00,,OVC065,0.00,VWS V14.00,2013-03-06 10:46:00,
2013-03-06 05:51:00,37.6,20.6,29.80,ENE,67,0.0,3.6,50,0.00,,OVC065,0.00,VWS V14.00,2013-03-06 10:51:00,
2013-03-06 05:56:00,37.6,20.6,29.80,NE,36,2.7,3.1,50,0.00,,OVC065,0.00,VWS V14.00,2013-03-06 10:56:00,
2013-03-06 06:01:00,37.6,20.6,29.80,NE,37,0.0,3.1,50,0.00,,OVC065,0.00,VWS V14.00,2013-03-06 11:01:00,
2013-03-06 06:06:00,37.6,21.1,29.80,NNW,328,0.0,4.5,51,0.00,,OVC065,0.00,VWS V14.00,2013-03-06 11:06:00,
2013-03-06 06:11:00,37.8,21.3,29.80,NE,39,3.6,4.9,51,0.00,,OVC065,0.00,VWS V14.00,2013-03-06 11:11:00,
2013-03-06 06:16:00,37.9,21.4,29.80,NE,50,0.0,5.8,51,0.00,,OVC065,0.00,VWS V14.00,2013-03-06 11:16:00,
2013-03-06 06:21:00,37.9,21.4,29.80,WNW,293,3.1,4.0,51,0.00,,OVC065,0.00,VWS V14.00,2013-03-06 11:21:00,
2013-03-06 06:26:00,37.9,21.4,29.80,ENE,69,0.0,3.6,51,0.00,,OVC065,0.00,VWS V14.00,2013-03-06 11:26:00,
2013-03-06 06:31:00,37.9,21.4,29.80,NE,47,0.0,3.1,51,0.00,,OVC065,0.00,VWS V14.00,2013-03-06 11:31:00,
2013-03-06 06:36:00,37.9,21.4,29.80,ENE,73,3.1,4.9,51,0.00,,OVC065,0.00,VWS V14.00,2013-03-06 11:36:00,
2013-03-06 06:41:00,37.9,21.4,29.80,ESE,115,0.0,4.0,51,0.00,,OVC065,0.00,VWS V14.00,2013-03-06 11:41:00,
2013-03-06 06:46:00,37.9,21.4,29.80,WNW,290,0.0,3.6,51,0.00,,OVC065,0.00,VWS V14.00,2013-03-06 11:46:00,
2013-03-06 06:51:00,38.1,22.1,29.80,ENE,57,2.7,4.0,52,0.00,,OVC065,0.00,VWS V14.00,2013-03-06 11:51:00,
2013-03-06 06:56:00,38.1,21.6,29.80,ENE,67,4.5,4.5,51,0.00,,OVC065,0.00,VWS V14.00,2013-03-06 11:56:00,
2013-03-06 07:01:00,38.1,21.6,29.80,NE,55,2.7,3.1,51,0.00,,OVC065,0.00,VWS V14.00,2013-03-06 12:01:00,
2013-03-06 07:06:00,37.9,21.4,29.80,ENE,66,3.6,3.6,51,0.00,,OVC065,0.00,VWS V14.00,2013-03-06 12:06:00,
2013-03-06 07:11:00,37.9,21.9,29.80,ENE,62,0.0,3.1,52,0.00,,OVC065,0.00,VWS V14.00,2013-03-06 12:11:00,
2013-03-06 07:16:00,38.1,22.1,29.80,ESE,107,0.0,3.1,52,0.00,,OVC065,0.00,VWS V14.00,2013-03-06 12:16:00,
2013-03-06 07:21:00,38.1,22.1,29.80,East,83,4.0,5.8,52,0.00,,OVC065,0.00,VWS V14.00,2013-03-06 12:21:00,
2013-03-06 07:26:00,38.1,22.1,29.80,North,5,3.1,3.1,52,0.00,,OVC065,0.00,VWS V14.00,2013-03-06 12:26:00,
2013-03-06 07:31:00,38.1,22.1,29.80,NE,54,4.0,5.4,52,0.00,,OVC065,0.00,VWS V14.00,2013-03-06 12:31:00,
2013-03-06 07:36:00,38.3,22.2,29.80,ENE,58,3.6,4.5,52,0.00,,OVC065,0.00,VWS V14.00,2013-03-06 12:36:00,
2013-03-06 07:41:00,38.3,22.2,29.80,ENE,63,3.1,4.0,52,0.00,,OVC065,0.00,VWS V14.00,2013-03-06 12:41:00,
2013-03-06 07:46:00,38.3,22.2,29.80,NE,46,2.7,4.0,52,0.00,,OVC065,0.00,VWS V14.00,2013-03-06 12:46:00,
2013-03-06 07:51:00,38.5,22.4,29.80,NE,41,4.0,4.9,52,0.00,,OVC065,0.00,VWS V14.00,2013-03-06 12:51:00,
2013-03-06 07:56:00,38.5,22.4,29.80,ENE,63,2.7,3.1,52,0.00,,OVC065,0.00,VWS V14.00,2013-03-06 12:56:00,
2013-03-06 08:01:00,38.7,22.6,29.80,South,190,2.7,4.0,52,0.00,,OVC065,0.00,VWS V14.00,2013-03-06 13:01:00,
2013-03-06 08:06:00,38.8,22.7,29.80,ENE,59,4.5,5.4,52,0.00,,OVC065,0.00,VWS V14.00,2013-03-06 13:06:00,
2013-03-06 08:11:00,38.7,22.1,29.80,ENE,62,3.6,6.3,51,0.00,,OVC065,0.00,VWS V14.00,2013-03-06 13:11:00,
2013-03-06 08:16:00,38.7,22.1,29.80,NE,42,3.6,4.0,51,0.00,,OVC065,0.00,VWS V14.00,2013-03-06 13:16:00,
2013-03-06 08:21:00,38.7,22.6,29.80,NE,53,5.8,5.8,52,0.00,,OVC065,0.00,VWS V14.00,2013-03-06 13:21:00,
2013-03-06 08:26:00,38.7,22.6,29.80,NE,49,5.4,5.4,52,0.00,,OVC065,0.00,VWS V14.00,2013-03-06 13:26:00,
2013-03-06 08:31:00,38.7,22.6,29.80,NE,42,3.1,4.9,52,0.00,,OVC065,0.00,VWS V14.00,2013-03-06 13:31:00,
2013-03-06 08:36:00,38.8,22.7,29.80,NE,48,3.1,6.3,52,0.00,,OVC065,0.00,VWS V14.00,2013-03-06 13:36:00,
2013-03-06 08:41:00,38.8,22.7,29.80,ENE,74,2.7,4.5,52,0.00,,OVC065,0.00,VWS V14.00,2013-03-06 13:41:00,
2013-03-06 08:46:00,39.0,22.9,29.80,East,100,0.0,4.5,52,0.00,,OVC065,0.00,VWS V14.00,2013-03-06 13:46:00,
2013-03-06 08:51:00,38.8,22.7,29.80,ENE,67,0.0,3.6,52,0.00,,OVC065,0.00,VWS V14.00,2013-03-06 13:51:00,
2013-03-06 08:56:00,38.5,22.9,29.80,ENE,58,2.7,4.5,53,0.00,,OVC065,0.00,VWS V14.00,2013-03-06 13:56:00,
2013-03-06 09:01:00,38.1,23.0,29.80,East,81,4.0,5.4,54,0.00,,OVC065,0.00,VWS V14.00,2013-03-06 14:01:00,
2013-03-06 09:06:00,37.9,23.7,29.80,ENE,62,3.1,3.1,56,0.00,,OVC065,0.00,VWS V14.00,2013-03-06 14:06:00,
2013-03-06 09:11:00,37.9,24.5,29.80,SW,218,3.1,4.5,58,0.00,,OVC065,0.00,VWS V14.00,2013-03-06 14:11:00,
2013-03-06 09:16:00,38.1,25.1,29.80,East,93,4.0,4.0,59,0.00,,OVC065,0.00,VWS V14.00,2013-03-06 14:16:00,
2013-03-06 09:21:00,38.3,25.6,29.80,East,81,4.5,4.9,60,0.00,,OVC065,0.00,VWS V14.00,2013-03-06 14:21:00,
2013-03-06 09:26:00,38.7,26.0,29.80,NE,42,3.1,5.4,60,0.00,,OVC065,0.00,VWS V14.00,2013-03-06 14:26:00,
2013-03-06 09:31:00,39.0,25.5,29.80,NE,44,3.1,4.5,58,0.00,,OVC065,0.00,VWS V14.00,2013-03-06 14:31:00,
2013-03-06 09:36:00,39.2,25.3,29.80,NE,50,4.9,5.8,57,0.00,,OVC065,0.00,VWS V14.00,2013-03-06 14:36:00,
2013-03-06 09:41:00,39.2,24.8,29.80,NE,47,6.3,6.3,56,0.00,,OVC065,0.00,VWS V14.00,2013-03-06 14:41:00,
2013-03-06 09:46:00,39.2,24.4,29.80,NE,56,4.9,7.4,55,0.00,,OVC065,0.00,VWS V14.00,2013-03-06 14:46:00,
2013-03-06 09:51:00,39.2,24.4,29.80,ENE,70,0.0,3.1,55,0.00,,OVC065,0.00,VWS V14.00,2013-03-06 14:51:00,
2013-03-06 09:56:00,39.6,25.2,29.80,NNE,33,3.6,4.0,56,0.00,,OVC065,0.00,VWS V14.00,2013-03-06 14:56:00,
2013-03-06 10:01:00,39.7,25.3,29.80,ENE,73,3.6,5.4,56,0.00,,OVC065,0.00,VWS V14.00,2013-03-06 15:01:00,
2013-03-06 10:06:00,39.9,25.1,29.80,NE,37,4.9,5.4,55,0.00,,OVC065,0.00,VWS V14.00,2013-03-06 15:06:00,
2013-03-06 10:11:00,39.9,25.1,29.80,ENE,72,4.9,4.9,55,0.00,,OVC065,0.00,VWS V14.00,2013-03-06 15:11:00,
2013-03-06 10:16:00,39.9,25.1,29.80,ENE,63,6.3,6.3,55,0.00,,OVC065,0.00,VWS V14.00,2013-03-06 15:16:00,
2013-03-06 10:21:00,39.9,25.1,29.80,ENE,70,2.7,4.0,55,0.00,,OVC065,0.00,VWS V14.00,2013-03-06 15:21:00,
2013-03-06 10:26:00,40.1,25.7,29.80,ENE,78,4.0,5.8,56,0.00,,OVC065,0.00,VWS V14.00,2013-03-06 15:26:00,
2013-03-06 10:31:00,40.5,25.6,29.80,ENE,78,3.1,6.7,55,0.00,,OVC065,0.00,VWS V14.00,2013-03-06 15:31:00,
2013-03-06 10:36:00,40.6,25.3,29.80,SE,132,0.0,6.9,54,0.00,,OVC065,0.00,VWS V14.00,2013-03-06 15:36:00,
2013-03-06 10:41:00,40.6,24.9,29.80,East,87,3.6,6.7,53,0.00,,OVC065,0.00,VWS V14.00,2013-03-06 15:41:00,
2013-03-06 10:46:00,39.4,23.7,29.80,NE,49,4.9,5.4,53,0.00,,OVC065,0.00,VWS V14.00,2013-03-06 15:46:00,
2013-03-06 10:51:00,39.2,25.7,29.80,ENE,69,3.6,6.3,58,0.00,,OVC065,0.00,VWS V14.00,2013-03-06 15:51:00,
2013-03-06 10:56:00,39.0,25.9,29.80,East,90,6.7,7.4,59,0.00,,OVC065,0.00,VWS V14.00,2013-03-06 15:56:00,
2013-03-06 11:01:00,39.4,25.9,29.80,NE,56,6.7,11.2,58,0.00,,OVC065,0.00,VWS V14.00,2013-03-06 16:01:00,
2013-03-06 11:06:00,40.3,26.7,29.80,East,92,3.6,7.8,58,0.00,,OVC065,0.00,VWS V14.00,2013-03-06 16:06:00,
2013-03-06 11:11:00,40.6,25.3,29.77,ENE,69,6.7,8.7,54,0.00,,OVC065,0.00,VWS V14.00,2013-03-06 16:11:00,
2013-03-06 11:16:00,40.8,25.0,29.77,SE,137,3.1,7.8,53,0.00,,OVC065,0.00,VWS V14.00,2013-03-06 16:16:00,
2013-03-06 11:21:00,40.5,23.8,29.77,East,93,6.7,6.7,51,0.00,,OVC065,0.00,VWS V14.00,2013-03-06 16:21:00,
2013-03-06 11:26:00,39.7,24.0,29.80,NE,43,4.9,6.7,53,0.00,,OVC065,0.00,VWS V14.00,2013-03-06 16:26:00,
2013-03-06 11:31:00,39.6,25.6,29.80,NE,45,3.1,4.5,57,0.00,,OVC065,0.00,VWS V14.00,2013-03-06 16:31:00,
2013-03-06 11:36:00,40.5,25.6,29.80,ESE,118,4.9,7.4,55,0.00,,OVC065,0.00,VWS V14.00,2013-03-06 16:36:00,
2013-03-06 11:41:00,40.5,23.8,29.80,ENE,68,7.8,9.6,51,0.00,,OVC065,0.00,VWS V14.00,2013-03-06 16:41:00,
2013-03-06 11:46:00,40.3,22.7,29.80,ENE,64,4.9,10.5,49,0.00,,OVC065,0.00,VWS V14.00,2013-03-06 16:46:00,
2013-03-06 11:51:00,40.5,22.8,29.80,ENE,73,6.3,9.6,49,0.00,,OVC065,0.00,VWS V14.00,2013-03-06 16:51:00,
2013-03-06 11:56:00,40.5,22.8,29.80,East,91,4.5,6.3,49,0.00,,OVC065,0.00,VWS V14.00,2013-03-06 16:56:00,
2013-03-06 12:01:00,40.3,22.7,29.80,NE,44,0.0,5.4,49,0.00,,OVC055,0.00,VWS V14.00,2013-03-06 17:01:00,
2013-03-06 12:06:00,40.3,22.7,29.80,NE,35,3.1,5.4,49,0.00,,OVC055,0.00,VWS V14.00,2013-03-06 17:06:00,
2013-03-06 12:11:00,40.6,23.0,29.80,NE,50,3.1,4.9,49,0.00,,OVC055,0.00,VWS V14.00,2013-03-06 17:11:00,
2013-03-06 12:16:00,41.2,20.9,29.80,NE,53,6.9,9.2,44,0.00,,OVC055,0.00,VWS V14.00,2013-03-06 17:16:00,
2013-03-06 12:21:00,40.8,20.1,29.80,ENE,65,3.6,5.4,43,0.00,,OVC055,0.00,VWS V14.00,2013-03-06 17:21:00,
2013-03-06 12:26:00,40.5,21.3,29.77,ENE,61,3.6,5.4,46,0.00,,OVC055,0.00,VWS V14.00,2013-03-06 17:26:00,
2013-03-06 12:31:00,40.3,22.7,29.77,East,79,5.4,9.6,49,0.00,,OVC055,0.00,VWS V14.00,2013-03-06 17:31:00,
2013-03-06 12:36:00,39.6,22.0,29.77,NNE,31,3.6,8.7,49,0.00,,OVC055,0.00,VWS V14.00,2013-03-06 17:36:00,
2013-03-06 12:41:00,39.4,23.2,29.77,NE,54,5.8,6.7,52,0.00,,OVC055,0.00,VWS V14.00,2013-03-06 17:41:00,
2013-03-06 12:46:00,39.6,22.5,29.77,ENE,73,7.4,8.7,50,0.00,,OVC055,0.00,VWS V14.00,2013-03-06 17:46:00,
2013-03-06 12:51:00,39.4,21.3,29.77,ENE,67,6.7,6.9,48,0.00,,OVC055,0.00,VWS V14.00,2013-03-06 17:51:00,
2013-03-06 12:56:00,38.8,20.8,29.77,East,82,6.9,6.9,48,0.00,,OVC055,0.00,VWS V14.00,2013-03-06 17:56:00,
2013-03-06 13:01:00,39.2,21.7,29.77,NE,40,7.4,7.4,49,0.00,,OVC055,0.00,VWS V14.00,2013-03-06 18:01:00,
2013-03-06 13:06:00,39.7,19.1,29.77,NE,41,6.7,9.6,43,0.00,,OVC055,0.00,VWS V14.00,2013-03-06 18:06:00,
2013-03-06 13:11:00,39.9,17.6,29.77,East,83,6.7,7.4,40,0.00,,OVC055,0.00,VWS V14.00,2013-03-06 18:11:00,
2013-03-06 13:16:00,40.1,17.1,29.77,ENE,75,6.7,7.8,39,0.00,,OVC055,0.00,VWS V14.00,2013-03-06 18:16:00,
2013-03-06 13:21:00,40.3,17.3,29.77,ENE,72,6.3,6.7,39,0.00,,OVC055,0.00,VWS V14.00,2013-03-06 18:21:00,
2013-03-06 13:26:00,40.5,16.9,29.77,NNE,24,0.0,4.0,38,0.00,,OVC055,0.00,VWS V14.00,2013-03-06 18:26:00,
2013-03-06 13:31:00,40.6,17.0,29.77,SSE,152,2.7,6.7,38,0.00,,OVC055,0.00,VWS V14.00,2013-03-06 18:31:00,
2013-03-06 13:36:00,40.6,17.0,29.77,NE,46,3.6,5.8,38,0.00,,OVC055,0.00,VWS V14.00,2013-03-06 18:36:00,
2013-03-06 13:41:00,40.8,17.2,29.77,NNE,24,2.7,5.4,38,0.00,,OVC055,0.00,VWS V14.00,2013-03-06 18:41:00,
2013-03-06 13:46:00,40.6,15.8,29.77,ENE,69,4.9,7.4,36,0.00,,OVC055,0.00,VWS V14.00,2013-03-06 18:46:00,
2013-03-06 13:51:00,40.8,15.9,29.77,ENE,70,2.7,6.7,36,0.00,,OVC055,0.00,VWS V14.00,2013-03-06 18:51:00,
2013-03-06 13:56:00,40.8,15.9,29.77,ENE,67,3.1,5.4,36,0.00,,OVC055,0.00,VWS V14.00,2013-03-06 18:56:00,
2013-03-06 14:01:00,41.0,15.5,29.77,ENE,76,6.7,7.4,35,0.00,,OVC055,0.00,VWS V14.00,2013-03-06 19:01:00,
2013-03-06 14:06:00,41.2,15.6,29.77,SE,124,3.1,6.7,35,0.00,,OVC055,0.00,VWS V14.00,2013-03-06 19:06:00,
2013-03-06 14:11:00,41.2,15.6,29.77,East,86,4.0,4.9,35,0.00,,OVC055,0.00,VWS V14.00,2013-03-06 19:11:00,
2013-03-06 14:16:00,41.2,15.6,29.77,East,84,6.9,6.9,35,0.00,,OVC055,0.00,VWS V14.00,2013-03-06 19:16:00,
2013-03-06 14:21:00,41.2,15.6,29.77,NE,48,5.4,7.4,35,0.00,,OVC055,0.00,VWS V14.00,2013-03-06 19:21:00,
2013-03-06 14:26:00,41.2,15.6,29.77,East,80,6.3,7.4,35,0.00,,OVC055,0.00,VWS V14.00,2013-03-06 19:26:00,
2013-03-06 14:31:00,41.4,15.8,29.77,East,79,3.6,6.3,35,0.00,,OVC055,0.00,VWS V14.00,2013-03-06 19:31:00,
2013-03-06 14:36:00,41.4,15.8,29.77,NNE,28,4.9,7.4,35,0.00,,OVC055,0.00,VWS V14.00,2013-03-06 19:36:00,
2013-03-06 14:41:00,41.2,16.3,29.77,East,93,3.1,5.4,36,0.00,,OVC055,0.00,VWS V14.00,2013-03-06 19:41:00,
2013-03-06 14:46:00,41.2,15.6,29.77,ENE,70,2.7,7.4,35,0.00,,OVC055,0.00,VWS V14.00,2013-03-06 19:46:00,
2013-03-06 14:51:00,41.2,15.6,29.77,East,96,3.6,5.4,35,0.00,,OVC055,0.00,VWS V14.00,2013-03-06 19:51:00,
2013-03-06 14:56:00,41.2,15.6,29.77,ENE,57,8.3,8.3,35,0.00,,OVC055,0.00,VWS V14.00,2013-03-06 19:56:00,
2013-03-06 15:01:00,41.2,16.3,29.77,ENE,67,4.0,7.4,36,0.00,,OVC055,0.00,VWS V14.00,2013-03-06 20:01:00,
2013-03-06 15:06:00,41.0,17.4,29.77,ENE,64,9.2,9.6,38,0.00,,OVC055,0.00,VWS V14.00,2013-03-06 20:06:00,
2013-03-06 15:11:00,40.5,17.5,29.77,NE,53,4.0,6.3,39,0.00,,OVC055,0.00,VWS V14.00,2013-03-06 20:11:00,
2013-03-06 15:16:00,40.3,17.9,29.77,ENE,60,3.1,4.0,40,0.00,,OVC055,0.00,VWS V14.00,2013-03-06 20:16:00,
2013-03-06 15:21:00,40.6,18.2,29.77,NE,54,4.0,8.3,40,0.00,,OVC055,0.00,VWS V14.00,2013-03-06 20:21:00,
2013-03-06 15:26:00,40.5,18.6,29.77,NE,52,3.6,5.8,41,0.00,,OVC055,0.00,VWS V14.00,2013-03-06 20:26:00,
2013-03-06 15:31:00,40.3,18.5,29.77,ENE,69,8.3,8.3,41,0.00,,OVC055,0.00,VWS V14.00,2013-03-06 20:31:00,
2013-03-06 15:36:00,40.3,17.9,29.77,ESE,102,4.0,6.7,40,0.00,,OVC055,0.00,VWS V14.00,2013-03-06 20:36:00,
2013-03-06 15:41:00,40.3,17.9,29.77,ENE,57,8.3,8.3,40,0.00,,OVC055,0.00,VWS V14.00,2013-03-06 20:41:00,
2013-03-06 15:46:00,40.3,17.9,29.77,NE,52,9.2,9.2,40,0.00,,OVC055,0.00,VWS V14.00,2013-03-06 20:46:00,
2013-03-06 15:51:00,40.1,18.3,29.77,SE,133,3.1,6.9,41,0.00,,OVC055,0.00,VWS V14.00,2013-03-06 20:51:00,
2013-03-06 15:56:00,39.9,18.1,29.77,ENE,69,9.2,9.2,41,0.00,,OVC055,0.00,VWS V14.00,2013-03-06 20:56:00,
2013-03-06 16:01:00,39.7,18.0,29.77,ENE,68,4.9,8.7,41,0.00,,OVC055,0.00,VWS V14.00,2013-03-06 21:01:00,
2013-03-06 16:06:00,39.7,18.0,29.77,SE,141,3.6,6.3,41,0.00,,OVC055,0.00,VWS V14.00,2013-03-06 21:06:00,
2013-03-06 16:11:00,39.9,18.1,29.77,ENE,73,3.6,6.3,41,0.00,,OVC055,0.00,VWS V14.00,2013-03-06 21:11:00,
2013-03-06 16:16:00,39.7,18.0,29.77,NW,320,4.5,9.2,41,0.00,,OVC055,0.00,VWS V14.00,2013-03-06 21:16:00,
2013-03-06 16:21:00,39.7,18.0,29.77,ENE,75,3.6,8.7,41,0.00,,OVC055,0.00,VWS V14.00,2013-03-06 21:21:00,
2013-03-06 16:26:00,39.7,18.0,29.77,East,93,4.0,7.8,41,0.00,,OVC055,0.00,VWS V14.00,2013-03-06 21:26:00,
2013-03-06 16:31:00,39.7,17.4,29.77,NE,42,6.7,9.6,40,0.00,,OVC055,0.00,VWS V14.00,2013-03-06 21:31:00,
2013-03-06 16:36:00,39.7,17.4,29.77,NE,55,10.1,13.0,40,0.00,,OVC055,0.00,VWS V14.00,2013-03-06 21:36:00,
2013-03-06 16:41:00,39.7,17.4,29.77,NE,47,10.1,10.1,40,0.00,,OVC055,0.00,VWS V14.00,2013-03-06 21:41:00,
2013-03-06 16:46:00,39.6,17.2,29.77,NE,38,4.5,8.7,40,0.00,,OVC055,0.00,VWS V14.00,2013-03-06 21:46:00,
2013-03-06 16:51:00,39.6,17.8,29.77,East,83,6.3,7.4,41,0.00,,OVC055,0.00,VWS V14.00,2013-03-06 21:51:00,
2013-03-06 16:56:00,39.4,18.2,29.80,ENE,61,5.8,6.3,42,0.00,,OVC055,0.00,VWS V14.00,2013-03-06 21:56:00,
2013-03-06 17:01:00,39.2,18.0,29.80,East,83,5.4,6.9,42,0.00,,OVC055,0.00,VWS V14.00,2013-03-06 22:01:00,
2013-03-06 17:06:00,38.8,17.7,29.80,East,81,5.4,6.9,42,0.00,,OVC055,0.00,VWS V14.00,2013-03-06 22:06:00,
2013-03-06 17:11:00,38.8,17.7,29.80,NNE,29,4.9,8.3,42,0.00,,OVC055,0.00,VWS V14.00,2013-03-06 22:11:00,
2013-03-06 17:16:00,38.8,17.7,29.80,ENE,72,3.6,5.8,42,0.00,,OVC055,0.00,VWS V14.00,2013-03-06 22:16:00,
2013-03-06 17:21:00,39.0,17.3,29.80,ENE,57,4.0,5.8,41,0.00,,OVC055,0.00,VWS V14.00,2013-03-06 22:21:00,
2013-03-06 17:26:00,39.0,17.3,29.77,ESE,106,4.0,6.3,41,0.00,,OVC055,0.00,VWS V14.00,2013-03-06 22:26:00,
2013-03-06 17:31:00,38.8,17.2,29.77,ENE,76,5.4,5.4,41,0.00,,OVC055,0.00,VWS V14.00,2013-03-06 22:31:00,
2013-03-06 17:36:00,38.8,17.7,29.77,NNE,16,2.7,5.4,42,0.00,,OVC055,0.00,VWS V14.00,2013-03-06 22:36:00,
2013-03-06 17:41:00,38.5,18.5,29.77,NNE,33,5.4,9.2,44,0.00,,OVC055,0.00,VWS V14.00,2013-03-06 22:41:00,
2013-03-06 17:46:00,38.3,18.8,29.77,ENE,71,8.3,8.3,45,0.00,,OVC055,0.00,VWS V14.00,2013-03-06 22:46:00,
2013-03-06 17:51:00,37.9,18.5,29.77,East,95,3.6,6.9,45,0.00,,OVC055,0.00,VWS V14.00,2013-03-06 22:51:00,
2013-03-06 17:56:00,37.9,18.5,29.80,ENE,72,3.6,6.3,45,0.00,,OVC055,0.00,VWS V14.00,2013-03-06 22:56:00,
2013-03-06 18:01:00,37.9,18.5,29.80,ENE,73,3.1,3.1,45,0.00,,OVC055,0.00,VWS V14.00,2013-03-06 23:01:00,
2013-03-06 18:06:00,37.9,18.5,29.80,SW,225,4.0,6.3,45,0.00,,OVC055,0.00,VWS V14.00,2013-03-06 23:06:00,
2013-03-06 18:11:00,37.9,18.0,29.80,NNE,27,4.0,4.9,44,0.00,,OVC055,0.00,VWS V14.00,2013-03-06 23:11:00,
2013-03-06 18:16:00,37.9,18.0,29.80,North,9,5.4,5.4,44,0.00,,OVC055,0.00,VWS V14.00,2013-03-06 23:16:00,
2013-03-06 18:21:00,38.1,17.6,29.80,NE,46,4.9,7.8,43,0.00,,OVC055,0.00,VWS V14.00,2013-03-06 23:21:00,
2013-03-06 18:26:00,37.9,18.0,29.80,East,81,2.7,4.5,44,0.00,,OVC055,0.00,VWS V14.00,2013-03-06 23:26:00,
2013-03-06 18:31:00,37.9,18.5,29.80,NW,308,2.7,4.0,45,0.00,,OVC055,0.00,VWS V14.00,2013-03-06 23:31:00,
2013-03-06 18:36:00,37.6,18.7,29.80,NNW,337,5.4,6.3,46,0.00,,OVC055,0.00,VWS V14.00,2013-03-06 23:36:00,
2013-03-06 18:41:00,37.4,18.5,29.80,North,351,2.7,4.0,46,0.00,,OVC055,0.00,VWS V14.00,2013-03-06 23:41:00,
2013-03-06 18:46:00,37.4,19.0,29.80,East,82,4.5,4.9,47,0.00,,OVC055,0.00,VWS V14.00,2013-03-06 23:46:00,
2013-03-06 18:51:00,37.4,19.0,29.80,North,356,0.0,5.4,47,0.00,,OVC055,0.00,VWS V14.00,2013-03-06 23:51:00,
2013-03-06 18:56:00,37.2,19.4,29.80,NE,51,3.1,5.4,48,0.00,,OVC055,0.00,VWS V14.00,2013-03-06 23:56:00,
2013-03-06 19:01:00,37.0,19.7,29.80,NNW,330,4.5,5.4,49,0.00,,OVC055,0.00,VWS V14.00,2013-03-07 00:01:00,
2013-03-06 19:06:00,36.9,19.5,29.80,NNW,327,0.0,5.8,49,0.00,,OVC055,0.00,VWS V14.00,2013-03-07 00:06:00,
2013-03-06 19:11:00,36.7,19.8,29.83,NE,49,3.6,6.3,50,0.00,,OVC055,0.00,VWS V14.00,2013-03-07 00:11:00,
2013-03-06 19:16:00,36.7,19.8,29.83,NNE,33,3.6,5.8,50,0.00,,OVC055,0.00,VWS V14.00,2013-03-07 00:16:00,
2013-03-06 19:21:00,36.7,19.8,29.83,NNW,339,6.9,7.8,50,0.00,,OVC055,0.00,VWS V14.00,2013-03-07 00:21:00,
2013-03-06 19:26:00,36.7,19.3,29.83,East,86,4.0,4.5,49,0.00,,OVC055,0.00,VWS V14.00,2013-03-07 00:26:00,
2013-03-06 19:31:00,36.9,19.5,29.83,North,351,2.7,5.8,49,0.00,,OVC055,0.00,VWS V14.00,2013-03-07 00:31:00,
2013-03-06 19:36:00,36.9,18.5,29.83,East,79,2.7,4.5,47,0.00,,OVC055,0.00,VWS V14.00,2013-03-07 00:36:00,
2013-03-06 19:41:00,36.9,18.0,29.80,NE,40,3.1,6.7,46,0.00,,OVC055,0.00,VWS V14.00,2013-03-07 00:41:00,
2013-03-06 19:46:00,36.9,18.0,29.80,ESE,105,3.1,4.5,46,0.00,,OVC055,0.00,VWS V14.00,2013-03-07 00:46:00,
2013-03-06 19:51:00,36.9,18.0,29.80,NNE,32,4.5,4.5,46,0.00,,OVC055,0.00,VWS V14.00,2013-03-07 00:51:00,
2013-03-06 19:56:00,36.9,17.5,29.80,NE,39,2.7,4.9,45,0.00,,OVC055,0.00,VWS V14.00,2013-03-07 00:56:00,
2013-03-06 20:01:00,36.9,17.5,29.80,ENE,74,2.7,5.4,45,0.00,,OVC055,0.00,VWS V14.00,2013-03-07 01:01:00,
2013-03-06 20:06:00,36.9,17.5,29.80,NE,37,5.8,5.8,45,0.00,,OVC055,0.00,VWS V14.00,2013-03-07 01:06:00,
2013-03-06 20:11:00,36.9,17.5,29.80,NE,54,0.0,0.0,45,0.00,,OVC055,0.00,VWS V14.00,2013-03-07 01:11:00,
2013-03-06 20:16:00,36.9,17.5,29.80,North,351,4.9,5.4,45,0.00,,OVC055,0.00,VWS V14.00,2013-03-07 01:16:00,
2013-03-06 20:21:00,36.7,17.9,29.80,ENE,78,4.5,8.3,46,0.00,,OVC055,0.00,VWS V14.00,2013-03-07 01:21:00,
2013-03-06 20:26:00,36.5,17.7,29.80,North,356,3.6,5.8,46,0.00,,OVC055,0.00,VWS V14.00,2013-03-07 01:26:00,
2013-03-06 20:31:00,36.5,17.7,29.80,NE,56,4.5,5.4,46,0.00,,OVC055,0.00,VWS V14.00,2013-03-07 01:31:00,
2013-03-06 20:36:00,36.7,17.9,29.80,North,351,0.0,2.7,46,0.00,,OVC055,0.00,VWS V14.00,2013-03-07 01:36:00,
2013-03-06 20:41:00,36.7,17.4,29.80,NNW,333,4.5,4.5,45,0.00,,OVC055,0.00,VWS V14.00,2013-03-07 01:41:00,
2013-03-06 20:46:00,36.7,16.8,29.80,NW,326,3.1,3.1,44,0.00,,OVC055,0.00,VWS V14.00,2013-03-07 01:46:00,
2013-03-06 20:51:00,36.9,17.0,29.80,NE,51,5.8,5.8,44,0.00,,OVC055,0.00,VWS V14.00,2013-03-07 01:51:00,
2013-03-06 20:56:00,36.9,17.0,29.80,NNW,327,3.1,4.0,44,0.00,,OVC055,0.00,VWS V14.00,2013-03-07 01:56:00,
2013-03-06 21:01:00,36.9,17.0,29.80,NNE,31,5.4,5.4,44,0.00,,OVC055,0.00,VWS V14.00,2013-03-07 02:01:00,
2013-03-06 21:06:00,36.9,17.0,29.80,NNW,339,4.9,4.9,44,0.00,,OVC055,0.00,VWS V14.00,2013-03-07 02:06:00,
2013-03-06 21:11:00,36.7,16.8,29.80,NNW,327,3.1,3.6,44,0.00,,OVC055,0.00,VWS V14.00,2013-03-07 02:11:00,
2013-03-06 21:16:00,36.7,17.4,29.80,East,88,3.1,3.1,45,0.00,,OVC055,0.00,VWS V14.00,2013-03-07 02:16:00,
2013-03-06 21:21:00,36.7,17.4,29.80,NW,313,3.6,3.6,45,0.00,,OVC055,0.00,VWS V14.00,2013-03-07 02:21:00,
2013-03-06 21:26:00,36.7,17.4,29.80,East,85,4.9,4.9,45,0.00,,OVC055,0.00,VWS V14.00,2013-03-07 02:26:00,
2013-03-06 21:31:00,36.7,17.4,29.80,NNE,24,3.6,5.4,45,0.00,,OVC055,0.00,VWS V14.00,2013-03-07 02:31:00,
2013-03-06 21:36:00,36.7,17.9,29.80,ENE,66,3.1,4.0,46,0.00,,OVC055,0.00,VWS V14.00,2013-03-07 02:36:00,
2013-03-06 21:41:00,36.7,17.9,29.80,WNW,294,3.6,3.6,46,0.00,,OVC055,0.00,VWS V14.00,2013-03-07 02:41:00,
2013-03-06 21:46:00,36.5,17.7,29.80,NE,41,2.7,6.9,46,0.00,,OVC055,0.00,VWS V14.00,2013-03-07 02:46:00,
2013-03-06 21:51:00,36.1,18.4,29.80,East,79,5.4,5.4,48,0.00,,OVC055,0.00,VWS V14.00,2013-03-07 02:51:00,
2013-03-06 21:56:00,36.1,18.8,29.80,South,179,5.4,5.4,49,0.00,,OVC055,0.00,VWS V14.00,2013-03-07 02:56:00,
2013-03-06 22:01:00,36.1,18.8,29.80,SW,231,3.6,4.0,49,0.00,,OVC055,0.00,VWS V14.00,2013-03-07 03:01:00,
2013-03-06 22:06:00,36.0,18.7,29.80,NW,322,4.9,4.9,49,0.00,,OVC055,0.00,VWS V14.00,2013-03-07 03:06:00,
2013-03-06 22:11:00,36.1,18.4,29.80,NE,35,4.0,4.0,48,0.00,,OVC055,0.00,VWS V14.00,2013-03-07 03:11:00,
2013-03-06 22:16:00,36.1,18.4,29.80,NNE,17,9.2,9.2,48,0.00,,OVC055,0.00,VWS V14.00,2013-03-07 03:16:00,
2013-03-06 22:21:00,36.1,18.4,29.80,East,89,4.5,6.3,48,0.00,,OVC055,0.00,VWS V14.00,2013-03-07 03:21:00,
2013-03-06 22:26:00,36.1,18.4,29.80,NE,40,3.1,4.9,48,0.00,,OVC055,0.00,VWS V14.00,2013-03-07 03:26:00,
2013-03-06 22:31:00,36.1,18.4,29.80,NNW,327,7.4,7.4,48,0.00,,OVC055,0.00,VWS V14.00,2013-03-07 03:31:00,
2013-03-06 22:36:00,36.1,17.9,29.80,NE,34,3.1,4.0,47,0.00,,OVC055,0.00,VWS V14.00,2013-03-07 03:36:00,
2013-03-06 22:41:00,36.1,17.9,29.80,ENE,57,0.0,6.3,47,0.00,,OVC055,0.00,VWS V14.00,2013-03-07 03:41:00,
2013-03-06 22:46:00,36.3,18.0,29.80,NW,311,4.5,4.5,47,0.00,,OVC055,0.00,VWS V14.00,2013-03-07 03:46:00,
2013-03-06 22:51:00,36.3,17.5,29.80,NE,39,3.1,5.8,46,0.00,,OVC055,0.00,VWS V14.00,2013-03-07 03:51:00,
2013-03-06 22:56:00,36.3,17.5,29.80,North,356,3.1,6.3,46,0.00,,OVC055,0.00,VWS V14.00,2013-03-07 03:56:00,
2013-03-06 23:01:00,36.3,17.5,29.80,NNE,29,3.6,4.5,46,0.00,,OVC055,0.00,VWS V14.00,2013-03-07 04:01:00,
2013-03-06 23:07:00,36.3,17.0,29.80,NE,46,2.7,5.4,45,0.00,,OVC055,0.00,VWS V14.00,2013-03-07 04:07:00,
2013-03-06 23:12:00,36.3,17.0,29.80,NNE,29,0.0,3.1,45,0.00,,OVC055,0.00,VWS V14.00,2013-03-07 04:12:00,
2013-03-06 23:17:00,36.5,17.2,29.80,NNE,21,3.6,3.6,45,0.00,,OVC055,0.00,VWS V14.00,2013-03-07 04:17:00,
2013-03-06 23:22:00,36.3,17.0,29.80,ESE,103,4.0,4.0,45,0.00,,OVC055,0.00,VWS V14.00,2013-03-07 04:22:00,
2013-03-06 23:27:00,36.3,17.0,29.80,NW,313,0.0,6.3,45,0.00,,OVC055,0.00,VWS V14.00,2013-03-07 04:27:00,
2013-03-06 23:32:00,36.1,17.4,29.80,North,1,2.7,4.0,46,0.00,,OVC055,0.00,VWS V14.00,2013-03-07 04:32:00,
2013-03-06 23:37:00,36.0,17.2,29.80,ENE,75,0.0,6.7,46,0.00,,OVC055,0.00,VWS V14.00,2013-03-07 04:37:00,
2013-03-06 23:42:00,36.0,17.7,29.80,NE,34,3.6,4.0,47,0.00,,OVC055,0.00,VWS V14.00,2013-03-07 04:42:00,
2013-03-06 23:47:00,36.0,17.7,29.80,West,280,5.8,6.3,47,0.00,,OVC055,0.00,VWS V14.00,2013-03-07 04:47:00,
2013-03-06 23:52:00,35.8,17.5,29.80,NW,308,0.0,4.0,47,0.00,,OVC055,0.00,VWS V14.00,2013-03-07 04:52:00,
2013-03-06 23:57:00,36.0,17.7,29.80,NE,53,2.7,7.8,47,0.00,,OVC055,0.00,VWS V14.00,2013-03-07 04:57:00,